sat.trackr.live / text

‹ back to catalog

YAOGAN-35 02B

NORAD 52908 · 2022-068B

PAYLOAD ACTIVE UNKNOWN

§ Identity

Operator
Country
PRC
Launch date
2022-06-23
Launch site
XICLF
Launch vehicle
Mass (kg)
RCS (m²)

External: N2YO · Heavens-Above · Gunter

§ Orbital elements

Epoch: 2026-05-25T05:36:46.948608Z

Period
92.51 min
Inclination
34.9954°
Eccentricity
0.0004061
Mean motion
15.56603319 rev/d
Perigee alt
394.7 km
Apogee alt
400.2 km
Semi-major
6,775.6 km
B*
9.2788e-4
RAAN
210.3622°
Arg perigee
178.7343°
Mean anomaly
181.3393°
Rev number
21,911

§ Raw data

YAOGAN-35 02B1 52908U 22068B   26145.23387672  .00068772  00000+0  92788-3 0  99942 52908  34.9954 210.3622 0004061 178.7343 181.3393 15.56603319219111

JSON: /api/v1/satellites/52908 · /tle

For live sub-satellite position, see the globe view (requires WebGL).

§ Visibility from observer

Set your observer location to see the next 7 days of passes ≥ 10°. The values pass through the URL so the page stays shareable.

No JS? Fill the form by hand. The geolocation button needs JavaScript.